#�ϑ�����,���ϕ���,���ϕ���,�ő啗��,�ő啗����������,�ő�u�ԕ���,�ő�u�ԕ�����������
#(�N����),(m/s)   ,(16����),(m/s)   ,(16����)        ,(m/s)       ,(16����)            
2012/1/20 9:09,5.3,8,5.3,8,6.2,9
2012/1/20 9:10,3.4,7,5.3,8,6.5,8
2012/1/20 9:11,3,9,3.4,8,3.8,10
2012/1/20 9:12,2.6,9,3,8,4.5,8
2012/1/20 9:13,2.4,9,2.6,8,4.7,8
2012/1/20 9:14,2.4,8,2.5,8,4.9,8
2012/1/20 9:15,2.4,9,2.5,8,6,9
2012/1/20 9:16,2.3,9,2.4,8,3.7,9
2012/1/20 9:17,2.3,9,2.3,8,3.8,12
2012/1/20 9:18,2.2,10,2.3,8,2.7,10
2012/1/20 9:19,2,10,2.2,8,2.2,10
2012/1/20 9:20,1.9,10,1.9,7,3.5,11
2012/1/20 9:21,2,10,2,9,6,8
2012/1/20 9:22,2.2,10,2.2,9,6.4,10
2012/1/20 9:23,2.5,10,2.5,9,7.2,10
2012/1/20 9:24,2.6,10,2.6,10,4.8,10
2012/1/20 9:25,2.5,10,2.6,10,4.5,8
2012/1/20 9:26,2.7,10,2.7,10,7.2,9
2012/1/20 9:27,3,10,3,10,6.7,10
2012/1/20 9:28,3.2,10,3.2,10,6.3,10
2012/1/20 9:29,3.4,10,3.4,10,6.2,9
2012/1/20 9:30,3.7,10,3.7,10,6,10
2012/1/20 9:31,3.6,10,3.7,10,4.5,11
2012/1/20 9:32,3.5,10,3.7,10,4.1,10
2012/1/20 9:33,3.3,10,3.5,10,5,9
2012/1/20 9:34,3.4,10,3.4,10,7.8,8
2012/1/20 9:35,3.7,10,3.7,10,7.1,10
2012/1/20 9:36,3.7,10,3.8,10,6.2,10
2012/1/20 9:37,3.7,10,3.7,10,6,9
2012/1/20 9:38,3.6,10,3.7,10,6.2,10
2012/1/20 9:39,3.5,10,3.6,10,3.7,10
2012/1/20 9:40,3.2,10,3.5,10,2.9,11
2012/1/20 9:41,3.1,10,3.2,10,3.1,10
2012/1/20 9:42,3.1,10,3.1,10,4.4,10
2012/1/20 9:43,3,10,3.1,10,3.5,10
2012/1/20 9:44,2.8,10,2.9,10,4.1,11
2012/1/20 9:45,2.8,10,2.8,10,4.1,10
2012/1/20 9:46,2.6,10,2.7,10,2.9,11
2012/1/20 9:47,2.3,10,2.5,10,2.4,11
2012/1/20 9:48,2.1,10,2.2,10,2.4,8
2012/1/20 9:49,2,10,2.1,10,1.8,10
2012/1/20 9:50,1.9,10,1.9,10,1.5,13
2012/1/20 9:51,1.9,10,1.9,10,2.2,11
2012/1/20 9:52,1.8,10,1.9,10,2.4,8
2012/1/20 9:53,1.7,10,1.7,10,2.2,8
2012/1/20 9:54,1.6,10,1.7,10,5.2,9
2012/1/20 9:55,1.5,10,1.6,10,4.3,9
2012/1/20 9:56,1.5,10,1.5,10,4.2,9
2012/1/20 9:57,1.5,9,1.5,10,3.8,8
2012/1/20 9:58,1.5,9,1.5,10,3.1,7
2012/1/20 9:59,1.5,9,1.5,10,2.2,8
2012/1/20 10:00,1.5,9,1.5,10,2.1,13
2012/1/20 10:01,1.4,9,1.5,10,1.8,12
2012/1/20 10:02,1.4,10,1.4,10,1.6,15
2012/1/20 10:03,1.5,11,1.5,10,2.2,16
2012/1/20 10:04,1.3,13,1.5,10,2.4,16
2012/1/20 10:05,1.2,14,1.3,10,1.6,16
2012/1/20 10:06,1,15,1.2,9,1.6,16
2012/1/20 10:07,1,15,1,9,2,8
2012/1/20 10:08,1,15,1.1,9,4.7,8
2012/1/20 10:09,1.2,15,1.2,9,4.1,10
2012/1/20 10:10,1.4,14,1.4,9,6.2,9
2012/1/20 10:11,1.6,13,1.6,13,6.9,11
2012/1/20 10:12,1.8,11,1.8,11,4.7,12
2012/1/20 10:13,1.8,10,1.8,11,4.2,10
2012/1/20 10:14,1.9,10,1.9,10,4.4,8
2012/1/20 10:15,2.2,10,2.2,10,5.8,9
2012/1/20 10:16,2.5,9,2.5,9,5.7,9
2012/1/20 10:17,2.8,9,2.8,9,8.5,9
2012/1/20 10:18,3.1,9,3.1,9,8.7,9
2012/1/20 10:19,3,9,3.1,9,3.7,9
2012/1/20 10:20,2.8,9,3,9,3.3,8
2012/1/20 10:21,2.7,9,2.8,9,5.5,8
2012/1/20 10:22,2.6,9,2.7,9,1.9,8
2012/1/20 10:23,2.6,9,2.6,9,4.9,9
2012/1/20 10:24,2.8,9,2.8,9,6.2,8
2012/1/20 10:25,2.8,8,2.8,9,5.7,8
2012/1/20 10:26,2.6,9,2.8,9,4.2,9
2012/1/20 10:27,2.4,9,2.6,9,5.8,8
2012/1/20 10:28,2.3,9,2.4,9,6,8
2012/1/20 10:29,2.4,9,2.4,9,5.6,8
2012/1/20 10:30,2.5,8,2.5,9,6.4,8
2012/1/20 10:31,2.5,8,2.5,9,4.9,9
2012/1/20 10:32,2.6,8,2.6,9,5,8
2012/1/20 10:33,2.6,8,2.7,9,3.8,8
2012/1/20 10:34,2.4,8,2.6,9,3.5,7
2012/1/20 10:35,2.2,8,2.4,8,2.2,8
2012/1/20 10:36,2.1,8,2.1,8,2.6,8
2012/1/20 10:37,2,8,2.1,8,1.8,4
2012/1/20 10:38,1.6,8,1.9,8,1.9,3
2012/1/20 10:39,1.5,8,1.5,8,4.3,7
2012/1/20 10:40,1.4,8,1.5,8,2.4,8
2012/1/20 10:41,1.3,7,1.4,8,1.6,6
2012/1/20 10:42,1.1,8,1.3,8,1.5,12
2012/1/20 10:43,1,8,1.1,8,1.5,13
2012/1/20 10:44,0.9,8,0.9,8,2.6,15
2012/1/20 10:45,1.1,12,1.1,8,4.3,16
2012/1/20 10:46,1.2,2,1.2,8,5.7,1
2012/1/20 10:47,1.2,1,1.3,8,2.5,16
2012/1/20 10:48,1.4,16,1.4,8,4.4,8
2012/1/20 10:49,1.5,1,1.5,8,4.7,2
2012/1/20 10:50,1.7,1,1.7,1,5.7,3
2012/1/20 10:51,2,1,2,1,5.2,2
2012/1/20 10:52,2.2,1,2.2,1,4.1,16
2012/1/20 10:53,2.2,2,2.2,1,2.6,2
2012/1/20 10:54,2.2,2,2.2,1,2.6,15
2012/1/20 10:55,2.2,2,2.2,1,5.6,15
2012/1/20 10:56,2.2,1,2.2,1,4.5,15
2012/1/20 10:57,2.3,1,2.3,1,3.6,14
2012/1/20 10:58,2.5,16,2.5,16,5.1,14
2012/1/20 10:59,2.3,16,2.5,16,1.5,16
2012/1/20 11:00,2,15,2.2,16,1.3,13
2012/1/20 11:01,1.7,15,2,16,0.8,13
2012/1/20 11:02,1.5,15,1.7,16,1.8,15
2012/1/20 11:03,1.4,15,1.5,16,1.6,15
2012/1/20 11:04,1.5,15,1.5,16,4.4,16
2012/1/20 11:05,1.4,15,1.5,16,3,12
2012/1/20 11:06,1.5,14,1.5,16,5.4,12
2012/1/20 11:07,1.3,14,1.5,16,3.9,10
2012/1/20 11:08,1,14,1.3,16,1.5,4
2012/1/20 11:09,1,15,1,16,0.8,4
2012/1/20 11:10,1.1,15,1.1,15,2.5,7
2012/1/20 11:11,1.2,5,1.2,15,2.9,8
2012/1/20 11:12,1.3,5,1.3,15,1.8,6
2012/1/20 11:13,1.4,5,1.4,15,6.7,3
2012/1/20 11:14,1.6,5,1.6,5,5.6,3
2012/1/20 11:15,1.6,5,1.7,5,3.7,5
2012/1/20 11:16,1.7,4,1.7,5,5.5,3
2012/1/20 11:17,1.9,4,1.9,4,4.1,3
2012/1/20 11:18,2,4,2,4,3.9,1
2012/1/20 11:19,2.2,4,2.2,4,4.1,1
2012/1/20 11:20,2.5,3,2.5,3,6,4
2012/1/20 11:21,2.9,3,2.9,3,10.1,4
2012/1/20 11:22,3.4,3,3.4,3,8.3,2
2012/1/20 11:23,3.4,3,3.5,3,5,4
2012/1/20 11:24,3.5,3,3.5,3,6,3
2012/1/20 11:25,3.5,3,3.5,3,4.4,1
2012/1/20 11:26,3.4,3,3.6,3,4.5,2
2012/1/20 11:27,3.2,3,3.4,3,3,3
2012/1/20 11:28,3.2,3,3.2,3,2.6,16
2012/1/20 11:29,3.1,3,3.2,3,2.7,16
2012/1/20 11:30,2.8,3,3.1,3,1.9,16
2012/1/20 12:19,2.4,2,2.4,2,3.5,3
2012/1/20 12:20,3.1,2,3.5,3,4.9,3
2012/1/20 12:21,2.9,2,2.9,3,4.5,2
2012/1/20 12:22,3.3,2,3.3,3,6.2,2
2012/1/20 12:23,3.6,2,3.6,2,6.8,3
2012/1/20 12:24,3.4,2,3.6,2,4.2,3
2012/1/20 12:25,3.2,2,3.4,2,3.7,1
2012/1/20 12:26,3,2,3.2,2,3.3,3
2012/1/20 12:27,2.8,2,3,2,2.7,2
2012/1/20 12:28,2.7,2,2.8,2,4.4,16
2012/1/20 12:29,2.7,2,2.7,2,3.7,16
2012/1/20 12:30,2.6,2,2.7,2,3.3,1
2012/1/20 12:31,2.5,2,2.6,2,3.6,16
2012/1/20 12:32,2.3,2,2.5,2,4.2,16
2012/1/20 12:33,2,1,2.3,2,2.7,2
2012/1/20 12:34,1.9,1,2,2,3.5,1
2012/1/20 12:35,2,1,2,2,5.7,16
2012/1/20 12:36,2,1,2,2,3.7,1
2012/1/20 12:37,2.1,1,2.1,2,3.5,3
2012/1/20 12:38,2.3,1,2.3,2,7.8,1
2012/1/20 12:39,2.3,1,2.3,2,5.4,16
2012/1/20 12:40,2.4,1,2.4,2,4.8,2
2012/1/20 12:41,2.5,1,2.5,2,5.2,2
2012/1/20 12:42,2.4,1,2.5,1,3,1
2012/1/20 12:43,2.5,1,2.5,1,3.5,2
2012/1/20 12:44,2.4,1,2.4,1,3,3
2012/1/20 12:45,2.4,1,2.4,1,6,16
2012/1/20 12:46,2.7,1,2.7,1,7.4,16
2012/1/20 12:47,3,1,3,1,8.1,1
2012/1/20 12:48,3.1,1,3.1,1,7.6,1
2012/1/20 12:49,3.2,1,3.2,1,6.5,16
2012/1/20 12:50,3,1,3.2,1,3.5,10
2012/1/20 12:51,3,1,3,1,4.7,16
2012/1/20 12:52,3.5,1,3.5,1,8.9,16
2012/1/20 12:53,3.7,1,3.7,1,7.7,16
2012/1/20 12:54,3.9,1,3.9,1,5.4,1
2012/1/20 12:55,3.9,1,4,1,4.7,1
2012/1/20 12:56,3.5,1,3.8,1,1.6,1
2012/1/20 12:57,3.2,1,3.5,1,2.9,3
2012/1/20 12:58,2.9,1,3.2,1,3.8,4
2012/1/20 12:59,2.7,1,2.8,1,4.2,1
2012/1/20 13:00,2.9,2,2.9,1,4.9,2
2012/1/20 13:01,2.8,2,2.9,1,4.9,2
2012/1/20 13:02,2.7,2,2.8,1,5.8,1
2012/1/20 13:03,2.4,2,2.6,1,5,3
2012/1/20 13:04,2.4,3,2.4,1,4.3,4
2012/1/20 13:05,2.4,3,2.4,1,4.3,6
2012/1/20 13:06,2.6,3,2.6,1,5.4,3
2012/1/20 13:07,2.7,4,2.7,1,5.7,5
2012/1/20 13:08,2.7,4,2.7,2,3.7,6
2012/1/20 13:09,2.7,4,2.7,2,3.2,5
2012/1/20 13:10,2.5,4,2.7,2,1.9,5
2012/1/20 13:11,2.3,4,2.5,2,2,5
2012/1/20 13:12,2.1,5,2.3,4,2.5,6
2012/1/20 13:13,2,5,2.1,4,2.7,6
2012/1/20 13:14,1.8,5,2,4,2.1,6
2012/1/20 13:15,1.7,5,1.8,4,2.2,8
2012/1/20 13:16,1.6,5,1.7,4,1.9,6
2012/1/20 13:17,1.3,5,1.5,4,2,9
2012/1/20 13:18,1.3,6,1.3,4,2.4,8
2012/1/20 13:19,1.2,6,1.3,4,2.2,8
2012/1/20 13:20,1.3,7,1.3,4,3.8,8
2012/1/20 13:21,1.4,7,1.4,4,3.1,9
2012/1/20 13:22,1.4,8,1.4,5,3.5,10
2012/1/20 13:23,1.5,8,1.5,5,5.6,7
2012/1/20 13:24,1.7,8,1.7,5,5.2,7
2012/1/20 13:25,1.7,8,1.7,5,3.2,7
2012/1/20 13:26,1.7,8,1.7,8,4.2,7
2012/1/20 13:27,1.9,8,1.9,8,4.4,7
2012/1/20 13:28,1.9,8,1.9,8,3.6,7
2012/1/20 13:29,2,8,2,8,3.1,6
2012/1/20 13:30,1.9,8,2,8,1.3,8
2012/1/20 13:31,1.8,8,1.9,8,3.5,9
2012/1/20 13:32,1.8,8,1.8,8,3.3,9
2012/1/20 13:33,1.7,8,1.8,8,4.8,8
2012/1/20 13:34,1.6,8,1.7,8,4.4,9
2012/1/20 13:35,1.7,8,1.7,8,4.7,7
2012/1/20 13:36,1.8,8,1.9,8,3.7,7
2012/1/20 13:37,1.7,8,1.8,8,2.1,6
2012/1/20 13:38,1.6,8,1.7,8,3.1,3
2012/1/20 13:39,1.4,8,1.6,8,0.1,2
2012/1/20 13:40,1.5,8,1.5,8,4.8,7
2012/1/20 13:41,1.8,8,1.8,8,6.1,8
2012/1/20 13:42,1.7,8,1.8,8,2.7,10
2012/1/20 13:43,1.7,8,1.7,8,3.9,1
2012/1/20 13:44,1.7,7,1.7,8,4.5,1
2012/1/20 13:45,1.5,6,1.6,8,1.4,10
2012/1/20 13:46,1.3,6,1.4,8,3,1
2012/1/20 13:47,1.4,4,1.4,8,2,3
2012/1/20 13:48,1.4,5,1.4,8,3,16
2012/1/20 13:49,1.5,4,1.5,8,2.7,16
2012/1/20 13:50,1.4,2,1.5,8,2.4,16
2012/1/20 13:51,1.1,1,1.4,8,0.6,10
2012/1/20 13:52,1,1,1.1,8,1.1,14
2012/1/20 13:53,0.9,16,1,7,1.1,14
2012/1/20 13:54,0.8,1,0.9,7,1.3,4
2012/1/20 13:55,1,1,1,4,3.3,3
2012/1/20 13:56,1.1,2,1.1,4,3.8,4
2012/1/20 13:57,1.2,2,1.2,4,4.3,5
2012/1/20 13:58,1.2,2,1.2,4,1.8,9
2012/1/20 13:59,1.2,2,1.2,4,2.5,15
2012/1/20 14:00,1.2,2,1.2,2,2,16
2012/1/20 14:01,1.3,3,1.3,2,1.9,15
2012/1/20 14:02,1.4,3,1.4,3,3.9,3
2012/1/20 14:03,1.6,3,1.6,3,4.7,8
2012/1/20 14:04,1.7,2,1.7,3,5.1,16
2012/1/20 14:05,1.7,3,1.7,3,3.9,5
2012/1/20 14:06,1.6,3,1.7,3,3.9,4
2012/1/20 14:07,1.8,3,1.8,3,6.3,5
2012/1/20 14:08,1.9,3,1.9,3,4.7,5
2012/1/20 14:09,2.2,4,2.2,4,6,5
2012/1/20 14:10,2.3,4,2.3,4,5,5
2012/1/20 14:11,2.6,5,2.6,5,5.7,5
2012/1/20 14:12,2.6,5,2.7,5,4.5,6
2012/1/20 14:13,2.7,4,2.7,5,5,1
2012/1/20 14:14,2.7,4,2.7,5,4.4,3
2012/1/20 14:15,2.6,4,2.7,5,4.2,2
2012/1/20 14:16,2.6,4,2.6,5,2.2,3
2012/1/20 14:17,2.4,4,2.6,5,3,4
2012/1/20 14:18,2.4,4,2.4,5,4.8,4
2012/1/20 14:19,2.3,3,2.5,5,4.2,3
2012/1/20 14:20,2.1,3,2.3,5,2.9,5
2012/1/20 14:21,2,3,2.1,5,3.2,4
2012/1/20 14:22,2.1,4,2.1,5,6.5,5
2012/1/20 14:23,2.3,4,2.3,4,6.1,2
2012/1/20 14:24,2.3,4,2.4,4,3.7,1
2012/1/20 14:25,2.2,4,2.3,4,1.8,14
2012/1/20 14:26,2.2,4,2.2,4,2.6,8
2012/1/20 14:27,2.3,4,2.3,4,4.7,3
2012/1/20 14:28,2.2,3,2.3,4,6,3
2012/1/20 14:29,2.4,4,2.4,4,5.7,3
2012/1/20 14:30,2.6,3,2.6,3,6.1,4
2012/1/20 14:31,2.6,3,2.6,3,4.9,5
2012/1/20 14:32,2.4,4,2.6,3,3.8,5
2012/1/20 14:33,2.3,4,2.4,3,4.9,4
2012/1/20 14:34,2.4,4,2.4,3,6.3,3
2012/1/20 14:35,2.6,4,2.6,3,4.1,3
2012/1/20 14:36,2.8,4,2.8,4,5.2,5
2012/1/20 14:37,2.8,4,2.9,4,5.4,2
2012/1/20 14:38,2.8,4,2.8,4,3.5,6
2012/1/20 14:39,2.8,5,2.9,4,4.4,6
2012/1/20 14:40,2.7,5,2.8,4,3.5,8
2012/1/20 14:41,2.7,5,2.7,4,3.8,6
2012/1/20 14:42,2.8,5,2.8,4,4.2,6
2012/1/20 14:43,2.8,5,2.8,4,3.7,6
2012/1/20 14:44,2.5,5,2.7,4,3.3,6
2012/1/20 14:45,2.5,6,2.6,4,5.4,4
2012/1/20 14:46,2.4,6,2.5,4,3,7
2012/1/20 14:47,2.4,6,2.4,4,5.2,6
2012/1/20 14:48,2.4,6,2.4,4,4.9,3
2012/1/20 14:49,2.4,6,2.4,5,4.8,2
2012/1/20 14:50,2.4,5,2.4,5,4.7,1
2012/1/20 14:51,2.4,5,2.5,5,3.9,3
2012/1/20 14:52,2.2,5,2.4,5,2.1,4
2012/1/20 14:53,2,5,2.2,5,1.5,8
2012/1/20 14:54,2,5,2,5,3,9
2012/1/20 14:55,1.8,5,2,6,1.9,11
2012/1/20 14:56,1.7,4,1.8,5,1,4
2012/1/20 14:57,1.5,4,1.7,5,1.8,8
2012/1/20 14:58,1.4,6,1.5,5,2.1,8
2012/1/20 14:59,1.2,8,1.4,5,2,12
2012/1/20 15:00,1,9,1.2,5,1.5,15
2012/1/20 15:01,0.8,10,1,5,1.1,15
2012/1/20 15:02,0.8,11,0.8,5,1,11
2012/1/20 15:03,0.8,11,0.8,5,1,14
2012/1/20 15:04,0.7,12,0.8,5,1.3,12
2012/1/20 15:05,0.7,11,0.7,5,0.9,11
2012/1/20 15:06,0.8,12,0.8,4,1.3,13
2012/1/20 15:07,0.8,12,0.8,5,1.3,13
2012/1/20 15:08,0.7,13,0.8,6,1.1,13
2012/1/20 15:09,0.7,13,0.7,8,1.4,14
2012/1/20 15:10,0.7,12,0.7,9,1.1,13
2012/1/20 15:11,0.7,12,0.7,10,1.6,10
2012/1/20 15:12,0.7,12,0.8,11,1.3,7
2012/1/20 15:13,0.7,12,0.8,11,0.8,5
2012/1/20 15:14,0.7,12,0.7,11,1.5,6
2012/1/20 15:15,0.8,11,0.8,11,2.9,7
2012/1/20 15:16,1,10,1,11,2.9,8
2012/1/20 15:17,1.1,10,1.1,10,3.7,8
2012/1/20 15:18,1.3,9,1.3,9,4.7,8
2012/1/20 15:19,1.4,8,1.4,9,3.5,8
2012/1/20 15:20,1.5,8,1.5,8,2.9,7
2012/1/20 15:21,1.6,8,1.6,8,3.2,8
2012/1/20 15:22,1.7,8,1.7,8,2.9,9
2012/1/20 15:23,1.8,8,1.8,8,3.3,8
2012/1/20 15:24,2,8,2,8,3.2,8
2012/1/20 15:25,2,8,2,8,3,8
2012/1/20 15:26,1.9,8,1.9,8,1.9,9
2012/1/20 15:27,1.8,8,1.8,8,1.8,8
2012/1/20 15:28,1.5,8,1.8,8,1.5,7
2012/1/20 15:29,1.6,8,1.6,8,3.3,6
2012/1/20 15:30,1.7,8,1.7,8,3.6,6
2012/1/20 15:31,1.7,8,1.7,8,3.3,6
2012/1/20 15:32,1.7,7,1.7,8,4.2,8
2012/1/20 15:33,1.7,7,1.8,8,2.5,7
2012/1/20 15:34,1.7,7,1.7,8,3,8
2012/1/20 15:35,1.7,7,1.7,8,4.4,8
2012/1/20 15:36,1.8,7,1.8,8,4.3,8
2012/1/20 15:37,1.8,7,1.8,8,2.7,9
2012/1/20 15:38,1.8,7,1.9,7,2.6,9
2012/1/20 15:39,1.7,7,1.8,7,1.3,10
2012/1/20 15:40,1.5,8,1.7,7,1.3,9
2012/1/20 15:41,1.3,8,1.4,7,1.8,9
2012/1/20 15:42,1.2,9,1.3,7,1.1,9
2012/1/20 15:43,1.1,9,1.2,7,1.1,15
2012/1/20 15:44,1,9,1.1,7,1,15
2012/1/20 15:45,0.9,10,1,7,1.6,1
2012/1/20 15:46,0.7,12,0.8,7,0.5,15
2012/1/20 15:47,0.6,14,0.7,7,0.3,16
2012/1/20 15:48,0.5,15,0.6,7,0.4,15
2012/1/20 15:49,0.5,15,0.5,7,2.4,16
2012/1/20 15:50,0.5,15,0.5,8,1.6,11
2012/1/20 15:51,0.5,15,0.6,8,0.9,7
2012/1/20 15:52,0.5,15,0.5,9,1,9
2012/1/20 15:53,0.5,15,0.5,9,2.4,10
2012/1/20 15:54,0.6,13,0.6,9,3,10
2012/1/20 15:55,0.6,12,0.6,10,1.8,10
2012/1/20 15:56,0.9,11,0.9,11,3.6,11
2012/1/20 15:57,1.1,11,1.1,11,2.9,12
2012/1/20 15:58,1.2,11,1.2,11,2.2,11
2012/1/20 15:59,1.3,10,1.3,11,3.7,9
2012/1/20 16:00,1.4,10,1.4,10,3.8,8
2012/1/20 16:01,1.4,10,1.4,10,4.1,7
2012/1/20 16:02,1.4,11,1.4,10,1.1,9
2012/1/20 16:03,1.4,11,1.4,10,1.3,4
2012/1/20 16:04,1.3,11,1.4,10,0.8,14
2012/1/20 16:05,1.3,12,1.3,10,1.4,1
2012/1/20 16:06,1.2,12,1.3,10,2.1,1
2012/1/20 16:07,1,15,1.2,10,2.5,3
2012/1/20 16:08,0.9,15,1,10,1.3,12
2012/1/20 16:09,0.8,16,0.9,10,0.5,15
2012/1/20 16:10,0.8,15,0.8,10,2.4,1
2012/1/20 16:11,1,16,1,10,4.4,16
2012/1/20 16:12,1.2,16,1.2,11,5.4,15
2012/1/20 16:13,1.4,16,1.4,11,3.5,15
2012/1/20 16:14,1.5,16,1.5,16,2.1,2
2012/1/20 16:15,1.5,16,1.5,16,2.2,16
2012/1/20 16:16,1.4,16,1.5,16,2.4,1
2012/1/20 16:17,1.4,16,1.4,16,1.4,15
2012/1/20 16:18,1.4,16,1.4,16,1.5,16
2012/1/20 16:19,1.6,1,1.6,1,2.4,2
2012/1/20 16:20,1.6,1,1.6,1,2.6,16
2012/1/20 16:21,1.5,16,1.6,1,3.9,15
2012/1/20 16:22,1.5,16,1.5,1,5.2,15
2012/1/20 16:23,1.6,16,1.6,1,3.8,15
2012/1/20 16:24,1.6,16,1.6,1,2.2,14
2012/1/20 16:25,1.8,16,1.8,16,4.7,1
2012/1/20 16:26,1.9,16,1.9,16,4.4,16
2012/1/20 16:27,2.1,16,2.1,16,3.3,16
2012/1/20 16:28,2.2,16,2.2,16,2.4,4
2012/1/20 16:29,2.1,16,2.1,16,2.1,14
2012/1/20 16:30,2,16,2.1,16,1,2
2012/1/20 16:31,2.1,16,2.1,16,8.1,1
2012/1/20 16:32,2.1,16,2.2,16,6.8,1
2012/1/20 16:33,2.2,16,2.2,16,4.5,15
2012/1/20 16:34,2.3,16,2.3,16,3.3,14
2012/1/20 16:35,2.1,16,2.3,16,3,13
2012/1/20 16:36,2.1,16,2.1,16,5.5,15
2012/1/20 16:37,2.2,15,2.2,16,6.7,16
2012/1/20 16:38,2.4,15,2.4,15,6.7,15
2012/1/20 16:39,2.6,16,2.6,15,4.2,2
2012/1/20 16:40,2.8,16,2.8,16,4.3,15
2012/1/20 16:41,2.8,16,2.8,16,3.2,16
2012/1/20 16:42,2.4,16,2.7,16,3.1,2
2012/1/20 16:43,2.3,16,2.4,16,2.1,16
2012/1/20 16:44,2.2,16,2.3,16,3.8,11
2012/1/20 16:45,2.6,16,2.6,16,7.8,1
2012/1/20 16:46,2.6,16,2.6,16,5.8,15
2012/1/20 16:47,2.5,16,2.6,16,4.7,16
2012/1/20 16:48,2.4,16,2.5,16,5.2,16
2012/1/20 16:49,2.4,16,2.5,16,4.8,15
2012/1/20 16:50,2.3,16,2.4,16,2.7,16
2012/1/20 16:51,2.2,16,2.3,16,1.4,4
2012/1/20 16:52,2.2,16,2.2,16,2.1,4
2012/1/20 16:53,2.1,16,2.2,16,2,7
2012/1/20 16:54,2,1,2.1,16,1.4,10
2012/1/20 16:55,1.7,16,2,16,1.5,9
2012/1/20 16:56,1.5,16,1.7,16,1.4,10
2012/1/20 16:57,1.3,14,1.5,16,1.5,12
2012/1/20 16:58,1.1,13,1.3,16,1.6,1
2012/1/20 16:59,0.8,11,1.1,16,0.8,13
2012/1/20 17:00,0.8,11,0.8,16,2,11
2012/1/20 17:01,0.8,11,0.8,16,1.8,13
2012/1/20 17:02,0.8,11,0.9,16,1.9,9
2012/1/20 17:03,0.8,12,0.8,16,0.9,10
2012/1/20 17:04,0.7,12,0.8,1,0.3,10
2012/1/20 17:05,0.7,12,0.7,16,1.5,12
2012/1/20 17:06,0.7,12,0.7,15,1.9,13
2012/1/20 17:07,0.7,12,0.7,14,1.8,13
2012/1/20 17:08,0.7,12,0.7,13,1.6,12
2012/1/20 17:09,0.8,12,0.8,11,2.2,8
2012/1/20 17:10,0.7,12,0.8,11,1.8,11
2012/1/20 17:11,0.6,12,0.7,11,1,13
2012/1/20 17:12,0.6,13,0.6,11,2.6,2
2012/1/20 17:13,0.8,14,0.8,12,3.5,16
2012/1/20 17:14,1,14,1,14,3.8,1
2012/1/20 17:15,1.1,15,1.1,15,3.1,16
2012/1/20 17:16,1,15,1.1,15,2,14
2012/1/20 17:17,1.1,16,1.1,15,2,7
2012/1/20 17:18,1.1,16,1.1,15,1.5,8
2012/1/20 17:19,1.2,1,1.2,1,3.2,6
2012/1/20 17:20,1.3,2,1.3,2,3,6
2012/1/20 17:21,1.4,4,1.4,2,2.7,7
2012/1/20 17:22,1.4,5,1.4,2,2.2,7
2012/1/20 17:23,1.3,6,1.4,2,1.3,12
2012/1/20 17:24,1.1,7,1.2,2,0.6,7
2012/1/20 17:25,0.9,7,1.1,2,0.8,4
2012/1/20 17:26,1,7,1,2,2.4,15
2012/1/20 17:27,1.1,6,1.1,2,3.9,2
2012/1/20 17:28,1.2,6,1.2,2,3.1,2
2012/1/20 17:29,1.3,5,1.3,2,6.2,2
2012/1/20 17:30,1.4,3,1.4,2,6.1,1
2012/1/20 17:31,1.6,2,1.6,2,3.9,2
2012/1/20 17:32,1.8,1,1.8,2,4.9,16
2012/1/20 17:33,1.9,1,1.9,1,3.7,16
2012/1/20 17:34,2,1,2,1,3.9,3
2012/1/20 17:35,2.1,1,2.1,1,3.2,2
2012/1/20 17:36,2.3,1,2.3,1,3.9,16
2012/1/20 17:37,2.3,1,2.4,1,4.1,16
2012/1/20 17:38,2.4,1,2.4,1,4.8,2
2012/1/20 17:39,2.3,1,2.4,1,3.1,1
2012/1/20 17:40,2.2,1,2.2,1,4.3,4
2012/1/20 17:41,2.2,1,2.3,1,4.1,3
2012/1/20 17:42,2.4,2,2.4,1,7.5,3
2012/1/20 17:43,2.7,2,2.7,2,7.8,3
2012/1/20 17:44,2.7,2,2.8,2,4.3,2
2012/1/20 17:45,2.8,2,2.8,2,2.9,4
2012/1/20 17:46,2.7,3,2.8,2,2.6,4
2012/1/20 17:47,2.6,3,2.6,2,4.2,5
2012/1/20 17:48,2.7,3,2.7,2,4.3,4
2012/1/20 17:49,2.9,3,2.9,3,6.5,3
2012/1/20 17:50,3.1,3,3.1,3,7.1,3
2012/1/20 17:51,3.2,3,3.2,3,4.8,4
2012/1/20 17:52,2.9,3,3.2,3,3.2,4
2012/1/20 17:53,2.7,3,2.8,3,4.1,4
2012/1/20 17:54,2.6,4,2.7,3,2.7,3
2012/1/20 17:55,2.5,4,2.6,3,1.6,7
2012/1/20 17:56,2.5,4,2.5,3,3.7,6
2012/1/20 17:57,2.4,4,2.5,3,1.8,5
2012/1/20 17:58,2.2,4,2.4,3,2.7,15
2012/1/20 17:59,1.9,4,2.2,3,0.8,15
2012/1/20 18:00,1.5,4,1.8,3,2.6,16
2012/1/20 18:01,1.3,3,1.5,3,2.9,2
2012/1/20 18:02,1.2,3,1.3,3,1.5,12
2012/1/20 18:03,1,3,1.2,4,1,1
2012/1/20 18:04,0.9,1,0.9,4,2.5,15
2012/1/20 18:05,1,16,1,4,2.9,11
2012/1/20 18:06,0.8,15,1,4,1.6,3
2012/1/20 18:07,0.9,15,0.9,4,3,6
2012/1/20 18:08,0.9,2,1,4,3.3,7
2012/1/20 18:09,1.2,4,1.2,4,3.3,3
2012/1/20 18:10,1.1,3,1.2,4,2.2,1
2012/1/20 18:11,1.1,3,1.1,3,1.3,3
2012/1/20 18:12,1.1,2,1.1,3,1.8,13
2012/1/20 18:13,1.3,1,1.3,1,4.8,16
2012/1/20 18:14,1.4,1,1.4,1,4.2,14
2012/1/20 18:15,1.3,1,1.4,1,1.1,12
2012/1/20 18:16,1.4,1,1.4,1,2.9,13
2012/1/20 18:17,1.3,16,1.4,1,2,8
2012/1/20 18:18,1.3,15,1.3,1,3.1,9
2012/1/20 18:19,1.3,14,1.3,1,3,6
2012/1/20 18:20,1.4,12,1.4,1,2.4,6
2012/1/20 18:21,1.5,11,1.5,11,3.1,9
2012/1/20 18:22,1.5,10,1.5,11,3.2,9
2012/1/20 18:23,1.3,9,1.5,11,3.2,10
2012/1/20 18:24,1.2,9,1.3,11,1.1,7
2012/1/20 18:25,1.2,8,1.2,11,2.2,16
2012/1/20 18:26,1.2,8,1.3,11,2.5,1
2012/1/20 18:27,1.2,6,1.2,11,1.6,3
2012/1/20 18:28,1.2,5,1.3,11,3.6,3
2012/1/20 18:29,1.1,3,1.2,11,2.1,4
2012/1/20 18:30,1,3,1.1,11,0.9,11
2012/1/20 18:31,1,3,1,11,1.9,10
2012/1/20 18:32,1,4,1,10,3.2,8
2012/1/20 18:33,1,4,1,9,1.5,9
2012/1/20 18:34,1.1,4,1.1,8,1.9,6
2012/1/20 18:35,1,6,1.1,8,1.8,7
2012/1/20 18:36,1,6,1,6,2.9,1
2012/1/20 18:37,1.4,6,1.4,6,8.7,2
2012/1/20 18:38,1.6,5,1.6,5,6.4,16
2012/1/20 18:39,1.7,5,1.7,6,5.8,2
2012/1/20 18:40,2,4,2,5,6,3
2012/1/20 18:41,2.1,4,2.1,4,5,3
2012/1/20 18:42,2.1,3,2.1,4,3.2,1
2012/1/20 18:43,2.1,3,2.1,4,2.7,3
2012/1/20 18:44,2.1,3,2.2,3,2.5,16
2012/1/20 18:45,2.3,2,2.3,2,4.8,3
2012/1/20 18:46,2.3,2,2.3,2,4.9,3
2012/1/20 18:47,2.1,2,2.3,2,5.1,16
2012/1/20 18:48,2,2,2.1,2,3.1,2
2012/1/20 18:49,1.8,2,2,2,3,1
2012/1/20 18:50,1.5,2,1.8,2,2,4
2012/1/20 18:51,1.3,2,1.5,2,1.1,6
2012/1/20 18:52,1.4,2,1.4,2,2.5,6
2012/1/20 18:53,1.4,3,1.4,2,3.6,4
2012/1/20 18:54,1.5,3,1.5,2,3.6,5
2012/1/20 18:55,1.4,3,1.5,2,3,1
2012/1/20 18:56,1.4,3,1.4,2,3,6
2012/1/20 18:57,1.3,4,1.5,2,4.1,8
2012/1/20 18:58,1.4,4,1.4,2,4.2,2
2012/1/20 18:59,1.6,4,1.6,2,4.5,1
2012/1/20 19:00,1.8,4,1.8,4,7.6,4
2012/1/20 19:01,1.9,4,1.9,4,3.9,3
2012/1/20 19:02,1.9,4,1.9,4,3.7,5
2012/1/20 19:03,2,3,2.1,4,5.8,2
2012/1/20 19:04,2.2,3,2.2,3,7.4,2
2012/1/20 19:05,2.4,4,2.4,4,4.1,7
2012/1/20 19:06,2.4,4,2.4,4,2.7,6
2012/1/20 19:07,2.3,4,2.4,4,1.6,6
2012/1/20 19:08,2.4,4,2.4,4,7.5,2
2012/1/20 19:09,2.4,4,2.4,4,5.1,1
2012/1/20 19:10,2.2,3,2.4,4,2.7,1
2012/1/20 19:11,2.2,4,2.2,4,3.1,8
2012/1/20 19:12,2.1,4,2.2,4,1.6,5
2012/1/20 19:13,1.9,5,2.1,4,1.5,8
2012/1/20 19:14,1.8,6,1.9,4,5.2,9
2012/1/20 19:15,1.7,6,1.7,4,6.5,9
2012/1/20 19:16,1.7,7,1.7,4,3.8,10
2012/1/20 19:17,1.8,7,1.8,4,3.5,8
2012/1/20 19:18,1.7,7,1.8,4,3.7,7
2012/1/20 19:19,1.5,8,1.7,4,3.3,7
2012/1/20 19:20,1.5,8,1.5,4,1.8,4
2012/1/20 19:21,1.5,7,1.5,4,2,1
2012/1/20 19:22,1.5,7,1.5,4,1,2
2012/1/20 19:23,1.5,8,1.5,5,2.4,12
2012/1/20 19:24,1.4,8,1.5,7,1.8,1
2012/1/20 19:25,1.5,6,1.5,7,5.2,16
2012/1/20 19:26,1.4,4,1.5,7,3.2,16
2012/1/20 19:27,1.3,2,1.4,7,2.4,4
2012/1/20 19:28,1.5,1,1.5,7,5.1,2
2012/1/20 19:29,2,16,2,16,10,15
2012/1/20 19:30,2.3,15,2.3,15,6.5,15
2012/1/20 19:31,2.5,16,2.5,16,4.3,16
2012/1/20 19:32,2.8,16,2.8,16,6.2,3
2012/1/20 19:33,2.9,16,2.9,16,6.1,3
2012/1/20 19:34,3.1,1,3.1,1,4.3,1
2012/1/20 19:35,3.2,1,3.2,1,6.3,3
2012/1/20 19:36,3.6,1,3.6,1,7.7,3
2012/1/20 19:37,4,2,4,2,6.8,3
2012/1/20 19:38,3.9,2,4,2,5.7,6
2012/1/20 19:39,3.4,2,3.9,2,3.7,5
2012/1/20 19:40,3.1,2,3.4,2,2.5,10
2012/1/20 19:41,3.1,3,3.2,2,2.9,6
2012/1/20 19:42,2.9,4,3,2,1.9,5
2012/1/20 19:43,2.6,3,2.8,2,2.2,2
2012/1/20 19:44,2.5,4,2.6,2,2.5,4
2012/1/20 19:45,2.3,4,2.5,2,1.9,4
2012/1/20 19:46,1.9,4,2.2,2,3.3,4
2012/1/20 19:47,1.6,4,1.9,2,3,4
2012/1/20 19:48,1.5,4,1.6,2,1.3,5
2012/1/20 19:49,1.4,4,1.4,2,1.6,8
2012/1/20 19:50,1.3,4,1.4,2,2.2,6
2012/1/20 19:51,1.4,4,1.4,3,3.9,1
2012/1/20 19:52,1.6,4,1.6,4,8.4,1
2012/1/20 19:53,1.6,4,1.6,4,2.4,4
2012/1/20 19:54,1.6,4,1.6,4,2.2,1
2012/1/20 19:55,1.6,4,1.6,4,2.7,5
2012/1/20 19:56,1.5,4,1.6,4,2.4,6
2012/1/20 19:57,1.4,5,1.5,4,1.9,9
2012/1/20 19:58,1.4,4,1.4,4,1.8,9
2012/1/20 19:59,1.4,4,1.4,4,3.1,16
2012/1/20 20:00,1.4,3,1.5,4,3.3,16
2012/1/20 20:01,1.3,4,1.4,4,2.5,9
2012/1/20 20:02,1.1,5,1.3,4,2.7,5
2012/1/20 20:03,1.2,5,1.2,4,4.1,16
2012/1/20 20:04,1.5,4,1.5,4,8.6,2
2012/1/20 20:05,1.7,3,1.7,3,7.1,2
2012/1/20 20:06,2,2,2,2,6.4,2
2012/1/20 20:07,2.3,2,2.3,2,8.7,3
2012/1/20 20:08,2.5,2,2.5,2,7.7,5
2012/1/20 20:09,2.9,2,2.9,2,10.7,2
2012/1/20 20:10,3.2,2,3.2,2,8.7,3
2012/1/20 20:11,3.4,2,3.4,2,5.6,1
2012/1/20 20:12,3.5,2,3.5,2,4.3,3
2012/1/20 20:13,3.6,2,3.6,2,5.2,4
2012/1/20 20:14,3.5,2,3.6,2,3.9,1
2012/1/20 20:15,3.3,2,3.5,2,3,15
2012/1/20 20:16,3.1,1,3.2,2,3.5,3
2012/1/20 20:17,2.9,1,3.1,2,6,2
2012/1/20 20:18,2.8,1,2.9,2,4.8,2
2012/1/20 20:19,2.5,1,2.8,2,3.2,2
2012/1/20 20:20,2.3,2,2.4,2,3.9,3
2012/1/20 20:21,2.2,2,2.2,2,2.4,4
2012/1/20 20:22,2.1,2,2.1,2,3.6,4
2012/1/20 20:23,2.2,2,2.2,2,4.4,7
2012/1/20 20:24,2.3,3,2.3,2,4.7,6
2012/1/20 20:25,2.4,4,2.4,2,3.7,6
2012/1/20 20:26,2.4,5,2.4,1,3.7,9
2012/1/20 20:27,2.3,6,2.4,1,2.5,8
2012/1/20 20:28,2.3,6,2.3,1,3.5,8
2012/1/20 20:29,2.3,7,2.3,1,2.6,9
2012/1/20 20:30,2.2,7,2.3,4,2.7,11
2012/1/20 20:31,2.2,8,2.2,4,1.6,12
2012/1/20 20:32,2,8,2.1,4,2.7,1
2012/1/20 20:33,1.8,8,2,4,2.5,3
2012/1/20 20:34,1.6,8,1.8,4,1.3,16
2012/1/20 20:35,1.3,7,1.5,4,0.1,4
2012/1/20 20:36,1.1,6,1.3,5,0.3,6
2012/1/20 20:37,1,3,1.1,6,1,2
2012/1/20 20:38,0.8,2,0.9,6,0.4,3
2012/1/20 20:39,0.7,2,0.8,7,1.3,16
2012/1/20 20:40,0.6,2,0.7,7,1.4,16
2012/1/20 20:41,0.7,2,0.7,8,6.9,12
2012/1/20 20:42,1,1,1,8,7.6,14
2012/1/20 20:43,1.1,16,1.1,8,4.9,10
2012/1/20 20:44,1.6,15,1.6,15,7.9,14
2012/1/20 20:45,1.9,14,1.9,14,4.8,13
2012/1/20 20:46,2.2,14,2.2,14,6.2,14
2012/1/20 20:47,2.3,13,2.3,14,5,14
2012/1/20 20:48,2.4,13,2.4,13,2.1,14
2012/1/20 20:49,2.5,13,2.5,13,1.9,15
2012/1/20 20:50,2.6,13,2.6,13,2.6,9
2012/1/20 20:51,2.5,12,2.6,13,2.9,11
2012/1/20 20:52,2.2,12,2.4,13,3.1,10
2012/1/20 20:53,2,12,2.2,13,0.8,13
2012/1/20 20:54,1.6,12,2,13,1.1,8
2012/1/20 20:55,1.3,12,1.5,13,0.3,2
2012/1/20 20:56,1,12,1.2,13,0.3,15
2012/1/20 20:57,0.9,11,0.9,13,2.5,10
2012/1/20 20:58,0.8,10,0.9,13,1.3,5
2012/1/20 20:59,0.8,9,0.8,13,1.1,5
2012/1/20 21:00,0.8,8,0.8,12,0.8,4
2012/1/20 21:01,0.6,7,0.7,12,0.5,4
2012/1/20 21:02,0.4,7,0.5,12,0.9,11
2012/1/20 21:03,0.5,8,0.5,12,1.3,10
2012/1/20 21:04,0.6,8,0.6,12,2.4,15
2012/1/20 21:05,0.8,10,0.8,12,2.5,14
2012/1/20 21:06,0.9,10,0.9,12,2.1,13
2012/1/20 21:07,0.9,10,0.9,11,1,9
2012/1/20 21:08,0.9,11,0.9,10,3.3,8
2012/1/20 21:09,0.9,11,0.9,10,3.3,10
2012/1/20 21:10,1.1,11,1.1,11,3.2,10